Riverside, CA

5:53 AM PDT on June 24, 2017 (GMT -0700)
Riverside Municipal

Weather History for KRAL - November, 2013

Change the Weather History Date:

Wednesday, November 27, 2013

  Actual Average Record
Temperature  
Mean Temperature 63 °F 57 °F  
Max Temperature 75 °F 70 °F 91 °F (2014)
Min Temperature 51 °F 44 °F 29 °F (1952)
Degree Days  
Heating Degree Days 2 8  
Month to date heating degree days 89 140  
Since 1 July heating degree days 128 175  
Cooling Degree Days 0 0  
Month to date cooling degree days 29 24  
Year to date cooling degree days 1986 1753  
Growing Degree Days 13 (Base 50)    
Moisture  
Dew Point 34 °F    
Average Humidity 41    
Maximum Humidity 63    
Minimum Humidity 18    
Precipitation  
Precipitation 0.00 in 0.03 in 1.00 in (1981)
Month to date precipitation 0.52 0.89  
Year to date precipitation 3.20 10.76  
Since 1 July precipitation 0.99  
Snow  
Snow 0.00 in - - ()
Month to date snowfall 0.0  
Year to date snowfall 0.0  
Snow Depth 0.00 in    
Sea Level Pressure  
Sea Level Pressure 29.93 in    
Wind  
Wind Speed 3 mph (East)    
Max Wind Speed 9 mph    
Max Gust Speed 15 mph    
Visibility 10 miles    
Events      
T = Trace of Precipitation, MM = Missing Value Source: NWS Daily Summary

Daily Weather History Graph

Daily Weather History Graph

Search for Another Location

Airport or City:

Trip Planner

Search our weather history database for the weather conditions in past years. The results will help you decide how hot, cold, wet, or windy it might be!

Date:

Astronomy

Nov. 27, 2013 Rise Set
Actual Time 6:33 AM PST 4:41 PM PST
Civil Twilight 6:06 AM PST 5:08 PM PST
Nautical Twilight 5:35 AM PST 5:39 PM PST
Astronomical Twilight 5:05 AM PST 6:09 PM PST
Moon 12:55 AM PST (11/27) 1:07 PM PST (11/27)
Length of Visible Light 11h 01m
Length of Day
10h 07m
Waning Crescent, 30% of the Moon is Illuminated
Nov 27
Waning Crescent
Dec 2
New
Dec 9
First Quarter
Dec 17
Full
Dec 25
Last Quarter

Hourly Weather History & Observations

Time (PST) Temp. Dew Point Humidity Pressure Visibility Wind Dir Wind Speed Gust Speed Precip Events Conditions
12:53 AM 59.0 °F 37.0 °F 44% 30.02 in 10.0 mi Calm Calm - N/A   Clear
1:53 AM 57.9 °F 37.9 °F 47% 30.01 in 10.0 mi ENE 3.5 mph - N/A   Clear
2:53 AM 55.0 °F 39.0 °F 55% 30.00 in 10.0 mi Calm Calm - N/A   Clear
3:53 AM 55.9 °F 37.9 °F 51% 29.99 in 10.0 mi Calm Calm - N/A   Clear
4:53 AM 54.0 °F 37.0 °F 53% 29.98 in 10.0 mi East 3.5 mph - N/A   Clear
5:53 AM 51.1 °F 39.0 °F 63% 29.99 in 10.0 mi Calm Calm - N/A   Clear
6:53 AM 52.0 °F 39.0 °F 61% 30.00 in 10.0 mi ENE 3.5 mph - N/A   Mostly Cloudy
7:53 AM 54.0 °F 39.0 °F 57% 29.99 in 10.0 mi NE 5.8 mph - N/A   Mostly Cloudy
8:53 AM 64.0 °F 37.9 °F 38% 29.97 in 10.0 mi NE 5.8 mph - N/A   Mostly Cloudy
9:53 AM 69.1 °F 35.1 °F 29% 29.96 in 10.0 mi East 3.5 mph - N/A   Clear
10:53 AM 69.1 °F 34.0 °F 27% 29.94 in 10.0 mi WSW 4.6 mph - N/A   Clear
11:53 AM 71.1 °F 33.1 °F 25% 29.92 in 10.0 mi Calm Calm - N/A   Clear
12:53 PM 73.9 °F 30.0 °F 20% 29.88 in 10.0 mi ENE 6.9 mph - N/A   Clear
1:53 PM 73.9 °F 30.0 °F 20% 29.86 in 10.0 mi SE 3.5 mph - N/A   Clear
2:53 PM 75.0 °F 28.9 °F 18% 29.85 in 10.0 mi East 3.5 mph - N/A   Clear
3:53 PM 73.0 °F 30.0 °F 20% 29.85 in 10.0 mi ESE 5.8 mph - N/A   Clear
4:53 PM 68.0 °F 30.9 °F 25% 29.86 in 10.0 mi East 9.2 mph - N/A   Clear
5:53 PM 66.0 °F 30.0 °F 26% 29.87 in 10.0 mi East 8.1 mph - N/A   Clear
6:53 PM 64.0 °F 30.9 °F 29% 29.90 in 10.0 mi Calm Calm - N/A   Clear
7:53 PM 64.0 °F 32.0 °F 30% 29.90 in 10.0 mi East 6.9 mph - N/A   Clear
8:53 PM 62.1 °F 32.0 °F 32% 29.91 in 10.0 mi East 3.5 mph - N/A   Clear
9:53 PM 60.1 °F 32.0 °F 35% 29.89 in 10.0 mi ESE 5.8 mph - N/A   Clear
10:53 PM 57.9 °F 34.0 °F 41% 29.90 in 10.0 mi Calm Calm - N/A   Clear
11:53 PM 54.0 °F 36.0 °F 51% 29.89 in 10.0 mi Calm Calm - N/A   Clear